CDT,Max TemperatureF,Mean TemperatureF,Min TemperatureF,Max Dew PointF,MeanDew PointF,Min DewpointF,Max Humidity, Mean Humidity, Min Humidity, Max Sea Level PressureIn, Mean Sea Level PressureIn, Min Sea Level PressureIn, Max VisibilityMiles, Mean VisibilityMiles, Min VisibilityMiles, Max Wind SpeedMPH, Mean Wind SpeedMPH, Max Gust SpeedMPH,PrecipitationIn, CloudCover, Events, WindDirDegrees
2013-10-1,77,64,50,56,48,36,84,58,31,29.97,29.81,29.72,10,10,10,23,10,29,0.00,0,,240
2013-10-2,72,57,41,44,39,35,89,58,27,30.12,30.04,29.96,10,10,10,9,4,13,0.00,0,,139
2013-10-3,66,58,50,57,53,37,100,71,42,29.98,29.92,29.87,10,7,1,15,6,21,0.80,6,Rain-Thunderstorm,85
2013-10-4,56,55,54,54,53,52,93,90,86,30.06,30.00,29.91,10,9,4,17,8,23,0.31,8,Rain-Thunderstorm,72
2013-10-5,60,57,54,59,56,53,100,95,90,30.03,29.86,29.71,10,4,1,20,10,28,1.54,8,Rain-Thunderstorm,93
2013-10-6,59,52,45,54,45,35,100,72,43,29.73,29.70,29.68,10,10,9,16,8,22,0.00,4,,269
2013-10-7,63,52,41,46,41,37,96,68,39,30.07,29.85,29.68,10,10,10,17,7,24,0.01,3,Rain,300
2013-10-8,72,55,37,45,42,36,100,67,34,30.13,30.07,30.02,10,10,10,22,7,29,0.00,0,,161
2013-10-9,72,59,46,49,46,43,93,67,41,30.17,30.13,30.07,10,10,10,17,6,22,0.00,0,,166
2013-10-10,72,57,41,48,45,41,100,68,35,30.17,30.11,30.05,10,10,5,15,5,20,0.00,0,,138
2013-10-11,73,61,48,56,50,46,93,71,49,30.06,29.99,29.88,10,8,2,22,11,32,0.00,2,,119
2013-10-12,65,57,48,56,47,37,78,61,44,30.12,29.91,29.83,10,10,10,26,12,35,T,6,Rain,213
2013-10-13,59,48,37,41,37,32,92,66,40,30.43,30.32,30.10,10,10,10,14,7,17,0.00,3,,293
2013-10-14,59,46,33,41,36,32,100,72,43,30.46,30.37,30.17,10,10,10,14,5,20,0.00,0,,114
2013-10-15,54,51,47,54,48,41,100,90,80,30.14,29.81,29.69,10,6,2,20,9,25,0.97,8,Rain,157
2013-10-16,50,45,39,46,42,36,93,80,66,29.93,29.82,29.71,10,9,2,16,7,21,0.01,7,Rain,306
2013-10-17,55,44,33,40,36,33,100,75,50,29.91,29.84,29.78,10,6,0,14,3,17,T,5,Fog,247
2013-10-18,46,40,33,43,40,32,96,86,76,29.93,29.81,29.73,10,8,4,17,5,23,0.09,7,Rain,294
2013-10-19,50,40,30,37,34,29,100,73,46,29.87,29.75,29.67,10,10,5,26,5,33,0.03,5,Rain,230
2013-10-20,41,36,31,40,35,30,100,93,85,29.85,29.73,29.63,10,6,0,18,5,23,0.12,7,Fog-Rain,138
2013-10-21,38,35,32,35,26,19,92,74,56,29.88,29.83,29.71,10,9,9,22,15,29,0.00,8,Snow,281
2013-10-22,44,38,31,28,26,22,82,66,49,29.99,29.92,29.82,10,10,10,16,9,23,0.00,6,,315
2013-10-23,40,34,28,27,23,20,78,65,52,30.01,29.98,29.91,10,10,9,18,8,22,0.00,7,Rain-Snow,301
2013-10-24,41,36,31,28,24,22,85,67,48,30.28,30.14,30.02,10,10,9,20,10,25,T,7,Rain-Snow,298
2013-10-25,50,41,31,34,28,23,85,65,45,30.31,30.10,29.72,10,10,10,22,11,31,0.00,5,,244
2013-10-26,50,44,38,36,31,27,79,64,49,30.05,29.89,29.68,10,10,7,24,10,32,T,6,Rain,300
2013-10-27,52,42,32,30,28,26,82,60,38,30.12,29.95,29.83,10,10,10,17,8,23,0.00,2,,259
2013-10-28,41,34,26,30,21,15,76,57,37,30.48,30.37,30.15,10,10,10,17,7,24,0.00,1,,60
2013-10-29,39,33,26,34,28,19,85,75,64,30.48,30.32,30.14,10,10,10,12,6,15,T,6,Rain,98
2013-10-30,50,44,38,50,43,35,100,93,85,30.17,29.96,29.75,9,3,0,10,6,15,0.06,8,Fog-Rain,119
2013-10-31,53,48,42,52,49,41,100,96,92,29.72,29.43,29.24,10,3,0,22,7,28,0.35,8,Fog-Rain,229